EW3148 Weather Reports


Display with metric or nautical units.
time (UTC)temp
F
wind
direction
speed
MPH
gust
MPH
rain 1hr
in
rain 24hr
in
rain mn
in
humidity
%
barometer
mb
20190217141255 53 307 3.0 9.0 0.00 0.00 0.00 75 1009.3
20190217140255 53 307 3.0 8.0 0.00 0.00 0.00 76 1008.9
20190217135255 53 307 2.0 6.0 0.00 0.00 0.00 78 1009.0
20190217134255 53 307 2.0 9.0 0.00 0.00 0.00 79 1008.8
20190217133255 53 306 1.0 8.0 0.00 0.00 0.00 80 1008.7
20190217132255 53 306 4.0 9.0 0.00 0.00 0.00 81 1008.4
20190217131255 53 306 2.0 9.0 0.00 0.00 0.00 82 1008.1
20190217130255 53 306 2.0 11.0 0.00 0.00 0.00 84 1007.6
20190217125255 54 301 7.0 10.0 0.00 0.00 0.00 86 1007.3
20190217124255 54 300 4.0 11.0 0.00 0.00 0.00 88 1007.2
20190217123255 54 297 4.0 12.0 0.00 0.00 0.00 90 1006.9
20190217122255 54 292 2.0 11.0 0.00 0.00 0.00 92 1006.8
20190217121255 54 291 4.0 11.0 0.00 0.00 0.00 93 1006.5
20190217120255 55 276 3.0 10.0 0.00 0.00 0.00 93 1006.4
20190217115255 56 271 3.0 11.0 0.00 0.00 0.00 94 1006.1
20190217114255 56 265 3.0 10.0 0.00 0.00 0.00 94 1005.9
20190217113256 57 260 3.0 12.0 0.00 0.00 0.00 94 1005.8
20190217112255 57 239 4.0 10.0 0.00 0.00 0.00 94 1005.6
20190217111255 58 225 3.0 7.0 0.00 0.00 0.00 94 1005.5
20190217110255 58 222 4.0 7.0 0.00 0.00 0.00 94 1005.4
20190217105255 58 221 2.0 7.0 0.00 0.00 0.00 94 1005.3
20190217104255 58 220 3.0 6.0 0.00 0.00 0.00 94 1005.3
20190217103255 58 220 2.0 6.0 0.00 0.00 0.00 94 1005.0
20190217102256 59 220 1.0 7.0 0.00 0.00 0.00 94 1005.0
20190217101255 59 219 1.0 6.0 0.00 0.00 0.00 94 1004.7
20190217100255 59 219 1.0 8.0 0.00 0.00 0.00 94 1004.8
20190217095255 59 218 2.0 7.0 0.00 0.00 0.00 94 1004.8
20190217094255 59 217 4.0 8.0 0.00 0.00 0.00 94 1004.8
20190217093255 59 211 2.0 9.0 0.00 0.00 0.00 94 1004.7
20190217092255 59 205 4.0 6.0 0.00 0.00 0.00 94 1004.8
20190217091255 58 203 3.0 9.0 0.00 0.00 0.00 94 1005.3
20190217090255 57 152 4.0 5.0 0.00 0.00 0.00 93 1005.3
20190217085255 56 152 1.0 6.0 0.00 0.00 0.00 93 1005.1
20190217084255 56 152 4.0 6.0 0.00 0.00 0.00 93 1005.2
20190217083255 55 152 1.0 6.0 0.00 0.00 0.00 92 1005.0
20190217082255 54 152 2.0 8.0 0.00 0.00 0.00 92 1005.1
20190217081254 54 152 2.0 5.0 0.00 0.00 0.00 92 1005.0
20190217080255 54 152 0.0 8.0 0.00 0.00 0.00 91 1004.6
20190217075254 54 152 1.0 5.0 0.00 0.00 0.00 91 1004.6
20190217074255 53 152 1.0 6.0 0.00 0.00 0.00 91 1004.4
20190217073254 53 152 1.0 5.0 0.00 0.00 0.00 91 1003.9
20190217072254 53 152 0.0 5.0 0.00 0.00 0.00 91 1003.6
20190217071255 53 152 3.0 5.0 0.00 0.00 0.00 91 1003.4
20190217070255 52 152 0.0 7.0 0.00 0.00 0.00 90 1003.3
20190217065254 52 152 2.0 5.0 0.00 0.00 0.00 90 1003.2
20190217064254 52 152 5.0 7.0 0.00 0.00 0.00 90 1003.2
20190217063254 51 152 5.0 7.0 0.00 0.00 0.00 90 1003.1
20190217062255 51 152 3.0 9.0 0.00 0.00 0.00 89 1003.0
20190217061255 51 151 5.0 10.0 0.00 0.00 0.00 89 1002.9
20190217060254 51 144 3.0 8.0 0.00 0.00 0.00 89 1003.1
20190217055254 51 143 2.0 8.0 0.00 0.00 0.00 88 1003.4
20190217054254 50 142 8.0 8.0 0.00 0.00 0.00 88 1003.3
20190217053255 50 139 3.0 5.0 0.00 0.00 0.00 88 1003.4
20190217052254 50 139 4.0 8.0 0.00 0.00 0.00 87 1003.5
20190217051255 50 134 3.0 10.0 0.00 0.00 0.00 87 1003.4
20190217050255 50 130 3.0 9.0 0.00 0.00 0.00 87 1003.6
20190217045255 50 130 3.0 9.0 0.00 0.00 0.00 87 1003.5
20190217044254 50 127 2.0 8.0 0.00 0.00 0.00 87 1003.6
20190217043255 50 125 3.0 9.0 0.00 0.00 0.00 87 1003.8
20190217042255 50 123 4.0 8.0 0.00 0.00 0.00 86 1004.1
20190217041254 50 123 4.0 9.0 0.00 0.00 0.00 86 1004.1
20190217040254 49 121 5.0 9.0 0.00 0.00 0.00 86 1004.1
20190217035254 49 115 4.0 9.0 0.00 0.00 0.00 86 1004.2
20190217034254 49 113 6.0 8.0 0.00 0.00 0.00 86 1004.3
20190217033254 49 112 2.0 9.0 0.00 0.00 0.00 85 1004.1
20190217032255 50 107 3.0 9.0 0.00 0.00 0.00 85 1004.2
20190217031254 50 107 3.0 8.0 0.00 0.00 0.00 85 1004.4
20190217030254 50 107 3.0 9.0 0.00 0.00 0.00 85 1004.4
20190217025254 50 107 3.0 8.0 0.00 0.00 0.00 85 1004.3
20190217024254 50 107 2.0 7.0 0.00 0.00 0.00 85 1004.3
20190217023254 50 107 2.0 7.0 0.00 0.00 0.00 85 1004.3
20190217022254 50 107 4.0 4.0 0.00 0.00 0.00 85 1004.3
20190217021254 50 107 1.0 4.0 0.00 0.00 0.00 86 1004.3
20190217020255 50 107 1.0 4.0 0.00 0.00 0.00 86 1004.5
20190217015254 50 107 0.0 4.0 0.00 0.00 0.00 85 1004.4
20190217014254 50 107 2.0 4.0 0.00 0.00 0.00 85 1004.0
20190217013254 50 107 4.0 8.0 0.00 0.00 0.00 85 1004.0
20190217012254 50 107 2.0 6.0 0.00 0.00 0.00 84 1003.9
20190217011254 50 107 2.0 7.0 0.00 0.00 0.00 84 1003.9
20190217010254 50 107 0.0 6.0 0.00 0.00 0.00 84 1003.8
20190217005254 50 107 1.0 4.0 0.00 0.00 0.00 84 1003.6
20190217004254 50 107 2.0 7.0 0.00 0.00 0.00 83 1003.4
20190217003254 51 107 6.0 7.0 0.00 0.00 0.00 83 1003.2
20190217002254 51 107 7.0 8.0 0.00 0.00 0.00 83 1003.0
20190217001254 51 107 1.0 10.0 0.00 0.00 0.00 82 1002.7
20190217000254 52 92 4.0 10.0 0.00 0.00 0.00 81 1002.6
20190216235254 52 82 5.0 5.0 0.00 0.00 0.00 80 1002.7
20190216234254 52 81 5.0 10.0 0.00 0.00 0.00 79 1002.9
20190216233254 53 75 3.0 8.0 0.00 0.00 0.00 79 1003.2
20190216232254 54 73 2.0 9.0 0.00 0.00 0.00 78 1003.1
20190216231254 54 64 4.0 9.0 0.00 0.00 0.00 77 1003.2
20190216230254 55 49 2.0 5.0 0.00 0.00 0.00 77 1003.5
20190216225254 55 49 0.0 5.0 0.00 0.00 0.00 75 1003.7
20190216224254 55 49 2.0 5.0 0.00 0.00 0.00 74 1003.8
20190216223254 56 49 2.0 5.0 0.00 0.00 0.00 72 1003.8
20190216222254 56 49 2.0 6.0 0.00 0.00 0.00 71 1003.8
20190216221255 57 49 3.0 9.0 0.00 0.00 0.00 70 1003.6
20190216220254 57 36 4.0 8.0 0.00 0.00 0.00 71 1003.8
20190216215254 57 345 2.0 5.0 0.00 0.00 0.00 70 1003.9
20190216214254 57 345 2.0 4.0 0.00 0.00 0.00 72 1004.2
20190216213254 56 345 0.0 5.0 0.00 0.00 0.00 72 1004.2
20190216212254 56 344 2.0 4.0 0.00 0.00 0.00 72 1004.1
20190216211254 56 344 1.0 5.0 0.00 0.00 0.00 70 1004.2
20190216210254 56 344 2.0 4.0 0.00 0.00 0.00 71 1004.3
20190216205254 56 344 3.0 8.0 0.00 0.00 0.00 70 1004.4
20190216204254 56 344 1.0 5.0 0.00 0.00 0.00 71 1004.4
20190216203254 55 344 1.0 6.0 0.00 0.00 0.00 70 1004.5
20190216202254 55 344 0.0 5.0 0.00 0.00 0.00 69 1004.8
20190216201254 55 344 2.0 5.0 0.00 0.00 0.00 69 1005.0
20190216200254 54 344 2.0 5.0 0.00 0.00 0.00 69 1005.1
20190216195254 54 344 0.0 6.0 0.00 0.00 0.00 68 1005.4
20190216194254 54 344 1.0 8.0 0.00 0.00 0.00 69 1005.4
20190216193254 54 344 3.0 8.0 0.00 0.00 0.00 69 1005.7
20190216192254 53 344 1.0 9.0 0.00 0.00 0.00 69 1005.8
20190216191254 53 344 3.0 6.0 0.00 0.00 0.00 70 1006.0
20190216190254 52 344 4.0 8.0 0.00 0.00 0.00 73 1006.4
20190216185254 51 343 4.0 9.0 0.00 0.00 0.00 72 1006.7
20190216184254 50 343 0.0 8.0 0.00 0.00 0.00 73 1007.1
20190216183254 50 343 4.0 8.0 0.00 0.00 0.00 75 1007.3
20190216182254 49 342 4.0 9.0 0.00 0.00 0.00 74 1007.5
20190216181254 49 342 2.0 10.0 0.00 0.00 0.00 73 1007.7
20190216180254 48 341 5.0 11.0 0.00 0.00 0.00 76 1008.1
20190216175254 48 331 5.0 10.0 0.00 0.00 0.00 76 1008.2
20190216174254 47 344 3.0 9.0 0.00 0.00 0.00 77 1008.6
20190216173254 46 344 6.0 11.0 0.00 0.00 0.00 78 1008.6
20190216172254 46 348 1.0 8.0 0.00 0.00 0.00 78 1008.8
20190216171254 46 348 4.0 11.0 0.00 0.00 0.00 78 1008.8
20190216170254 45 348 2.0 10.0 0.00 0.00 0.00 78 1009.2
20190216165254 45 349 3.0 10.0 0.00 0.00 0.00 79 1009.2
20190216164254 44 349 1.0 9.0 0.00 0.00 0.00 82 1009.1
20190216163254 43 349 3.0 10.0 0.00 0.00 0.00 83 1009.0
20190216162254 42 337 3.0 12.0 0.00 0.00 0.00 83 1009.6
20190216161254 42 332 4.0 13.0 0.00 0.00 0.00 83 1009.7
20190216160254 42 344 5.0 13.0 0.00 0.00 0.00 82 1009.8
20190216155254 42 327 10.0 12.0 0.00 0.00 0.00 82 1010.2
20190216154254 43 344 5.0 13.0 0.00 0.00 0.00 82 1010.0
20190216153253 43 337 3.0 14.0 0.00 0.00 0.00 81 1009.7
20190216152254 44 337 8.0 10.0 0.00 0.00 0.00 81 1009.6
20190216151254 44 344 2.0 12.0 0.00 0.00 0.00 81 1009.3
20190216150253 43 349 4.0 14.0 0.00 0.00 0.00 83 1009.6
20190216145253 42 331 9.0 12.0 0.00 0.00 0.00 84 1009.6
20190216144253 42 346 8.0 12.0 0.00 0.00 0.00 84 1009.2
20190216143254 42 348 5.0 10.0 0.00 0.00 0.00 83 1008.9
20190216142253 43 344 4.0 12.0 0.00 0.00 0.00 81 1008.9